sat.trackr.live / text

‹ back to catalog

YAOGAN-39 05C

NORAD 58559 · 2023-194C

PAYLOAD ACTIVE UNKNOWN

§ Identity

Operator
Country
PRC
Launch date
2023-12-10
Launch site
XICLF
Launch vehicle
Mass (kg)
RCS (m²)

External: N2YO · Heavens-Above · Gunter

§ Orbital elements

Epoch: 2026-05-25T05:18:33.312096Z

Period
94.90 min
Inclination
34.9915°
Eccentricity
0.0013063
Mean motion
15.17383194 rev/d
Perigee alt
504.7 km
Apogee alt
522.8 km
Semi-major
6,891.9 km
B*
2.5472e-4
RAAN
224.4515°
Arg perigee
197.0417°
Mean anomaly
162.9858°
Rev number
13,663

§ Raw data

YAOGAN-39 05C1 58559U 23194C   26145.22121889  .00005187  00000+0  25472-3 0  99952 58559  34.9915 224.4515 0013063 197.0417 162.9858 15.17383194136630

JSON: /api/v1/satellites/58559 · /tle

For live sub-satellite position, see the globe view (requires WebGL).

§ Visibility from observer

Set your observer location to see the next 7 days of passes ≥ 10°. The values pass through the URL so the page stays shareable.

No JS? Fill the form by hand. The geolocation button needs JavaScript.